Victoria, TX

1:45 AM CST on December 16, 2019 (GMT -0600)
Victoria Regional

Weather History for KVCT - October, 2019

Change the Weather History Date:

Tuesday, October 8, 2019

  Actual Average Record
Temperature  
Mean Temperature 78 °F 74 °F  
Max Temperature 90 °F 86 °F 98 °F (1925)
Min Temperature 66 °F 63 °F 39 °F (1952)
Degree Days  
Heating Degree Days 0 0  
Month to date heating degree days 0 0  
Since 1 July heating degree days 0 1  
Cooling Degree Days 13 9  
Month to date cooling degree days 133 82  
Year to date cooling degree days 3398 2880  
Growing Degree Days 28 (Base 50)    
Moisture  
Dew Point 63 °F    
Average Humidity 71    
Maximum Humidity 90    
Minimum Humidity 34    
Precipitation  
Precipitation 0.00 in 0.14 in 1.42 in (1994)
Month to date precipitation 0.04 1.14  
Year to date precipitation 19.40 32.17  
Snow  
Snow 0.00 in 0.00 in 0.00 in (2002)
Month to date snowfall 0.0 0.0  
Since 1 July snowfall 0.0 0.0  
Since 1 September snowfall 0.0 0.0  
Snow Depth 0.00 in    
Sea Level Pressure  
Sea Level Pressure 30.02 in    
Wind  
Wind Speed 5 mph ()    
Max Wind Speed 12 mph    
Max Gust Speed 13 mph    
Visibility 9.9 miles    
Events      
T = Trace of Precipitation, MM = Missing Value Source: Averaged Metar Reports

Daily Weather History Graph

Daily Weather History Graph

Search for Another Location

Airport or City:

Astronomy

Oct. 08, 2019 Rise Set
Actual Time 7:24 AM CDT 7:05 PM CDT
Civil Twilight 7:00 AM CDT 7:29 PM CDT
Nautical Twilight 6:33 AM CDT 7:56 PM CDT
Astronomical Twilight 6:05 AM CDT 8:24 PM CDT
Moon 4:36 PM CDT (10/8) 2:46 AM CDT (10/8)
Length of Visible Light 12h 28m
Length of Day
11h 41m
Waxing Gibbous, 78% of the Moon is Illuminated
Oct 8
Waxing Gibbous
Oct 13
Full
Oct 21
Last Quarter
Oct 27
New
Nov 4
First Quarter

Hourly Weather History & Observations

Time (CDT) Temp. Heat Index Dew Point Humidity Pressure Visibility Wind Dir Wind Speed Gust Speed Precip Events Conditions
12:51 AM 68.0 °F - 63.0 °F 84% 30.06 in 10.0 mi NNE 3.5 mph - N/A   Clear
1:51 AM 69.1 °F - 63.0 °F 81% 30.05 in 10.0 mi NNE 6.9 mph - N/A   Mostly Cloudy
2:51 AM 69.1 °F - 63.0 °F 81% 30.04 in 10.0 mi NNE 8.1 mph - N/A   Overcast
3:51 AM 66.9 °F - 63.0 °F 87% 30.04 in 10.0 mi North 4.6 mph - N/A   Clear
4:31 AM 68.0 °F - 64.0 °F 87% 30.04 in 10.0 mi NNE 5.8 mph - N/A   Overcast
4:51 AM 69.1 °F - 63.0 °F 81% 30.03 in 10.0 mi NNE 9.2 mph - N/A   Overcast
5:02 AM 69.1 °F - 63.0 °F 81% 30.03 in 10.0 mi NNE 9.2 mph - N/A   Overcast
5:51 AM 68.0 °F - 62.1 °F 81% 30.04 in 10.0 mi NE 8.1 mph - N/A   Overcast
6:08 AM 68.0 °F - 62.1 °F 81% 30.04 in 10.0 mi North 6.9 mph - N/A   Mostly Cloudy
6:19 AM 68.0 °F - 62.1 °F 81% 30.05 in 10.0 mi NNE 5.8 mph - N/A   Overcast
6:51 AM 69.1 °F - 62.1 °F 78% 30.04 in 10.0 mi NE 9.2 mph - N/A   Overcast
6:53 AM 69.1 °F - 62.1 °F 78% 30.05 in 10.0 mi NE 9.2 mph - N/A   Overcast
7:34 AM 69.1 °F - 62.1 °F 78% 30.04 in 10.0 mi NE 8.1 mph - N/A   Overcast
7:51 AM 69.1 °F - 62.1 °F 78% 30.04 in 10.0 mi NE 9.2 mph - N/A   Overcast
8:51 AM 70.0 °F - 61.0 °F 73% 30.07 in 10.0 mi NNE 10.4 mph - N/A   Overcast
9:51 AM 72.0 °F - 63.0 °F 73% 30.08 in 10.0 mi NE 6.9 mph - N/A   Overcast
10:51 AM 75.9 °F - 63.0 °F 64% 30.08 in 10.0 mi North 6.9 mph - N/A   Overcast
11:51 AM 78.1 °F - 64.0 °F 62% 30.07 in 10.0 mi ENE 3.5 mph - N/A   Mostly Cloudy
12:51 PM 81.0 °F 82.7 °F 64.9 °F 58% 30.04 in 10.0 mi Calm Calm - N/A   Mostly Cloudy
1:51 PM 82.9 °F 84.6 °F 64.9 °F 54% 30.01 in 10.0 mi Calm Calm - N/A   Mostly Cloudy
2:51 PM 88.0 °F 88.7 °F 63.0 °F 43% 29.97 in 10.0 mi Variable 3.5 mph - N/A   Partly Cloudy
3:51 PM 89.1 °F 88.8 °F 60.1 °F 38% 29.95 in 10.0 mi NNW 5.8 mph - N/A   Clear
4:51 PM 89.1 °F 88.0 °F 57.9 °F 35% 29.94 in 10.0 mi Calm Calm - N/A   Clear
5:51 PM 88.0 °F 87.1 °F 59.0 °F 37% 29.93 in 10.0 mi Calm Calm - N/A   Clear
6:51 PM 82.9 °F 83.3 °F 61.0 °F 47% 29.93 in 10.0 mi SSE 3.5 mph - N/A   Clear
7:51 PM 78.1 °F - 66.0 °F 66% 29.95 in 10.0 mi ESE 6.9 mph - N/A   Clear
8:51 PM 75.0 °F - 68.0 °F 79% 29.97 in 10.0 mi SE 8.1 mph - N/A   Clear
9:51 PM 75.0 °F - 69.1 °F 82% 29.98 in 10.0 mi SE 6.9 mph - N/A   Clear
10:51 PM 73.0 °F - 68.0 °F 84% 29.98 in 10.0 mi SE 6.9 mph - N/A   Clear
11:51 PM 72.0 °F - 68.0 °F 87% 29.97 in 8.0 mi East 4.6 mph - N/A   Clear